Terug naar catalogus

STARLINK-35137

ActiefCommunicatieVLEO
NORAD 65686·PAYLOAD·🇺🇸 United States

Gelanceerd Sep 21, 2025 vanaf Cape Canaveral Space Force Station

Loading…

Volgende Passages (komende 24 uur)

TLE

VersSource: CelesTrak SupGP

Epoch: Sep 14, 2026, 21:19 UTC

1 65686C 25212L   26257.88868056 -.00020455  00000+0 -60407-3 0  2578
2 65686  53.1569 173.6488 0001422 107.2278 348.6300 15.34415906    18

Volg STARLINK-35137 in realtime met AllMySat

Download on the App Store